Wind_Speed
2 3 3 3 3 4 4 5 5 6 6 6 6 6 5 5 5 5 5 5 6 6 7 7 7 7 6 6 7 7 7 6 6 6 6 6 5 5 4 4 5 4 4
2 3 3 3 4 5 5 5 5 5 6 6 6 6 6 6 4 4 4 6 7 7 7 7 7 8 7 7 6 7 7 7 6 7 7 7 6 5 5 5 6 5 6
3 3 3 4 4 5 5 5 5 5 6 6 6 6 6 6 4 3 5 6 7 8 8 8 8 8 8 8 8 9 8 7 7 7 8 7 7 7 7 7 6 6 7
3 4 4 4 5 5 5 6 6 6 6 6 7 7 8 6 6 5 5 5 7 8 9 10 9 9 9 9 9 9 9 8 8 9 8 8 8 7 8 8 8 7 7
4 4 5 5 5 5 6 6 6 7 7 7 7 7 7 5 5 5 6 7 7 8 9 10 10 10 10 10 10 10 10 10 9 9 10 10 9 9 9 9 10 9 9
4 5 5 5 5 5 6 7 7 7 7 8 8 7 7 5 5 6 7 7 7 8 9 10 11 11 11 12 12 11 11 10 11 11 11 11 11 11 11 11 11 11 10
5 5 5 5 5 6 6 7 7 7 7 8 8 7 6 6 6 6 6 7 7 7 8 9 10 10 11 12 12 12 11 11 11 12 12 11 11 11 12 12 11 11 11
5 6 6 6 6 7 7 7 8 8 8 8 7 6 6 6 5 6 6 7 7 8 9 9 10 11 11 12 12 12 12 11 11 11 11 10 11 12 11 12 11 11 11
6 7 7 7 7 8 8 9 9 8 8 8 7 7 6 6 6 5 6 7 7 8 9 10 11 11 11 11 12 12 12 11 10 10 10 9 9 10 10 10 10 10 10
7 7 8 8 8 9 9 9 9 9 9 8 8 7 7 7 7 7 7 7 7 8 9 10 10 11 11 11 11 11 11 11 10 10 10 9 9 9 9 9 9 9 10
8 8 8 8 9 9 9 8 8 8 8 8 8 8 7 7 8 8 8 8 8 8 8 9 9 10 10 10 11 11 11 11 9 10 10 9 9 9 9 9 9 9 9
8 8 8 8 8 8 8 7 7 8 8 9 8 8 8 8 8 8 8 8 8 8 8 8 9 10 10 10 11 11 10 10 10 9 9 9 10 9 8 9 9 9 8
8 8 8 8 8 8 7 8 8 8 8 9 9 9 9 9 9 9 8 8 8 8 7 7 9 11 10 10 10 11 10 10 10 10 10 10 10 10 9 8 9 9 8
8 8 8 8 8 8 8 8 8 9 9 9 10 9 9 9 9 9 9 9 9 8 8 7 8 10 10 11 11 11 11 11 11 11 11 10 10 9 9 8 8 8 8
8 8 8 8 9 9 9 8 9 9 10 10 10 9 9 8 8 8 9 9 8 8 8 8 8 8 9 10 10 10 11 11 11 11 10 10 10 10 9 9 9 9 8
9 9 9 9 9 9 10 10 10 11 11 10 10 10 10 9 9 9 9 9 9 8 8 8 8 8 9 9 10 10 10 10 10 10 10 11 11 10 8 8 9 9 9
9 9 9 9 10 10 10 11 11 12 12 11 11 11 11 10 10 10 10 9 9 9 9 8 8 9 9 9 10 10 10 10 10 9 9 10 10 9 8 8 8 9 8
9 10 10 10 10 10 11 11 12 12 12 11 11 11 11 11 11 11 10 10 9 9 9 8 9 8 8 9 9 9 9 9 9 9 9 9 9 9 9 9 9 9 9
10 10 11 11 11 11 11 11 11 11 11 11 11 11 11 11 11 11 11 11 10 10 9 9 9 8 9 9 9 9 9 9 9 8 9 9 9 9 9 10 10 10 10
12 12 11 11 11 11 11 12 12 11 11 11 10 10 11 11 10 10 10 10 10 10 10 10 10 10 9 9 9 9 9 9 9 9 9 10 10 10 9 10 10 10 10
13 13 12 12 12 12 12 12 12 12 12 11 11 11 10 11 10 10 9 10 10 10 10 10 10 10 10 9 9 9 9 9 10 10 10 10 10 10 11 11 11 11 11
12 13 13 13 12 13 13 13 13 13 13 13 12 12 12 11 11 11 10 10 10 10 10 10 9 10 10 10 10 10 10 10 10 10 10 10 11 10 11 11 11 12 12
13 13 13 13 14 14 14 14 14 14 14 14 14 14 14 13 13 12 12 11 11 11 11 10 10 10 10 10 11 11 11 11 11 11 11 11 12 12 12 12 13 13 13
14 15 15 14 15 15 14 14 14 14 14 14 14 14 15 14 13 13 12 12 12 12 12 12 11 11 11 12 12 12 12 12 13 12 12 12 12 13 14 14 14 14 15
14 15 15 15 15 15 15 15 15 15 15 15 15 15 15 15 15 14 13 13 14 13 13 13 13 12 12 13 13 13 13 13 13 13 13 14 14 14 15 16 16 16 16
16 16 16 16 16 16 16 16 16 16 16 16 15 15 15 15 15 14 14 14 15 14 14 14 14 14 14 14 14 14 14 14 14 14 15 15 15 16 17 17 18 18 18
Wind_Direction
25 19 10 12 10 5 1 353 342 341 344 339 336 327 316 309 285 269 248 234 226 224 225 227 227 232 232 236 232 228 227 225 224 224 224 225 230 234 234 228 225 228 221
355 355 351 353 357 355 353 348 343 339 336 337 331 326 320 314 285 261 248 237 229 226 225 227 228 235 234 236 235 230 231 228 223 224 228 231 234 237 238 239 239 235 227
339 336 334 340 343 343 347 347 343 336 327 326 324 321 313 300 275 257 247 239 232 234 237 234 230 235 241 245 240 237 236 233 228 228 234 237 236 241 242 245 246 242 237
328 325 327 328 333 337 341 341 335 331 322 318 317 316 313 295 268 267 259 251 246 246 241 238 236 237 243 244 243 241 236 235 236 236 237 241 242 246 249 250 250 247 243
321 318 319 318 320 324 327 330 327 324 321 316 313 316 317 304 271 267 265 261 254 249 243 238 241 243 245 246 244 243 242 240 240 241 243 245 246 246 251 252 248 244 244
317 318 320 320 319 319 320 322 321 322 322 319 314 312 314 301 283 279 271 265 258 250 247 245 246 248 248 247 244 245 248 244 244 245 246 248 251 251 253 251 249 246 246
312 313 316 319 320 320 321 321 318 318 320 320 319 311 309 304 292 284 272 269 260 253 251 249 249 250 251 248 246 246 246 247 247 244 246 250 253 257 258 253 248 247 245
306 307 308 307 310 313 317 318 315 313 316 316 315 313 306 304 298 293 280 277 269 260 253 251 251 251 251 249 248 249 250 247 249 249 249 255 255 256 256 250 245 245 244
301 303 303 303 305 307 310 312 311 309 310 310 307 308 306 304 300 299 289 284 280 269 259 256 256 252 251 250 249 249 250 249 250 249 251 259 260 258 254 246 241 245 247
299 301 303 301 301 304 306 307 308 307 307 308 306 306 305 304 304 299 291 288 284 278 269 263 257 253 248 245 245 245 246 246 249 248 251 253 252 252 248 241 241 242 248
299 303 305 304 303 303 304 305 306 308 307 306 304 297 299 300 300 298 293 294 290 284 275 264 255 249 248 248 247 248 245 243 246 247 249 250 247 242 242 245 246 247 251
294 299 303 307 308 307 304 305 306 307 305 305 304 296 292 293 297 299 293 292 294 291 284 265 251 248 251 248 246 249 246 242 245 247 246 248 249 248 247 248 251 252 256
293 295 299 305 308 307 305 305 305 307 306 304 303 299 293 288 292 296 293 293 291 289 279 263 250 248 251 250 249 251 247 245 244 246 249 255 254 252 254 255 258 262 265
293 294 296 299 301 304 304 305 306 306 305 304 302 300 297 293 293 296 294 291 292 288 279 265 251 246 247 250 249 246 243 243 241 243 250 252 254 255 252 254 264 267 259
294 296 295 295 297 300 300 302 304 306 305 301 298 296 297 295 293 296 298 294 290 287 281 274 262 256 248 247 248 244 242 242 244 246 250 253 252 251 252 252 255 258 257
297 294 292 291 291 293 296 299 301 302 302 300 297 294 294 292 289 289 292 291 289 283 276 268 261 256 250 249 250 248 242 242 247 250 255 254 252 253 251 251 249 251 254
294 293 296 297 293 292 294 296 298 300 298 296 295 292 289 288 289 288 288 286 285 283 276 266 257 253 253 252 251 251 247 248 250 252 255 255 253 253 251 255 253 257 258
293 296 296 295 295 295 297 299 299 299 299 294 292 289 287 287 288 288 286 285 283 280 276 272 264 261 259 259 258 257 255 255 254 252 251 254 255 254 255 255 255 256 260
288 292 294 292 292 293 296 299 300 299 298 297 293 289 286 286 287 285 285 285 282 278 271 269 266 261 260 261 265 263 257 257 255 253 251 254 252 249 253 253 255 259 262
285 286 288 289 290 292 294 295 297 296 295 295 293 291 289 289 286 284 285 285 283 277 271 267 264 261 259 264 266 264 257 254 253 253 254 254 255 254 256 253 255 260 266
283 281 282 285 287 290 290 291 293 292 292 292 289 289 289 288 284 282 284 283 282 279 275 270 263 262 261 262 264 261 258 252 250 251 256 256 256 257 259 261 265 269 272
279 278 279 282 284 285 286 289 291 291 292 291 288 287 287 285 282 281 280 280 279 278 276 271 266 263 262 263 264 263 260 259 259 256 255 255 256 259 258 260 265 269 271
275 277 280 282 283 284 284 287 289 289 291 291 290 290 287 284 282 280 278 277 278 276 275 273 272 267 266 265 265 264 261 260 260 257 254 255 258 260 261 262 264 268 270
275 274 277 279 280 282 284 286 287 286 288 290 289 288 287 285 281 277 279 277 275 274 273 272 271 268 267 265 265 264 261 262 261 257 257 257 258 259 262 263 265 269 270
276 274 275 278 280 281 282 283 284 283 284 286 287 285 284 283 283 280 279 279 276 273 271 269 270 268 268 266 264 263 262 261 261 259 257 260 261 261 261 264 266 268 269
279 275 275 276 278 278 278 279 280 281 281 283 283 283 282 282 282 281 280 279 277 273 270 269 267 268 269 267 266 263 263 263 262 261 261 262 264 266 266 265 267 267 269
Height
5881 5880 5879 5878 5878 5877 5877 5876 5875 5874 5873 5872 5870 5869 5867 5866 5865 5865 5866 5867 5868 5869 5870 5871 5872 5872 5872 5872 5871 5872 5873 5874 5874 5875 5875 5875 5875 5875 5876 5876 5876 5876 5876
5880 5880 5879 5878 5878 5877 5876 5876 5875 5874 5873 5872 5870 5868 5866 5864 5863 5864 5865 5866 5866 5868 5869 5870 5871 5871 5872 5872 5871 5871 5872 5873 5873 5874 5874 5875 5875 5875 5875 5875 5875 5875 5875
5880 5879 5879 5878 5877 5877 5876 5875 5874 5873 5872 5871 5870 5867 5866 5864 5863 5864 5865 5865 5866 5867 5868 5868 5869 5870 5871 5871 5871 5871 5871 5872 5872 5873 5873 5874 5874 5874 5874 5874 5874 5874 5874
5879 5879 5878 5878 5877 5876 5876 5875 5874 5873 5872 5871 5870 5867 5864 5861 5862 5864 5865 5865 5865 5866 5866 5867 5868 5868 5869 5869 5870 5870 5870 5871 5871 5872 5872 5872 5872 5873 5873 5873 5873 5873 5873
5879 5878 5878 5877 5877 5876 5875 5874 5874 5872 5871 5870 5869 5867 5864 5861 5862 5864 5864 5864 5864 5864 5865 5865 5866 5867 5867 5868 5868 5869 5869 5870 5870 5870 5870 5871 5871 5871 5871 5871 5871 5871 5872
5878 5878 5877 5876 5876 5875 5874 5874 5873 5872 5871 5870 5868 5867 5865 5863 5863 5863 5863 5863 5863 5863 5863 5864 5864 5865 5865 5866 5866 5867 5867 5868 5868 5868 5869 5869 5869 5869 5869 5869 5869 5869 5870
5878 5877 5876 5876 5875 5874 5874 5873 5872 5871 5870 5869 5868 5867 5865 5864 5863 5863 5862 5861 5861 5861 5862 5862 5862 5863 5863 5863 5864 5864 5865 5866 5866 5866 5867 5867 5867 5867 5866 5866 5866 5867 5868
5877 5876 5875 5875 5874 5873 5872 5872 5871 5870 5869 5868 5867 5866 5865 5864 5863 5862 5861 5860 5860 5860 5860 5860 5860 5860 5861 5861 5862 5863 5863 5864 5864 5864 5865 5865 5864 5864 5863 5862 5863 5865 5866
5875 5875 5874 5873 5873 5872 5871 5870 5869 5868 5868 5866 5865 5864 5863 5862 5862 5860 5860 5859 5859 5858 5857 5857 5857 5858 5859 5859 5860 5860 5861 5862 5862 5862 5863 5863 5862 5861 5859 5859 5861 5863 5864
5874 5873 5873 5872 5871 5870 5870 5869 5868 5867 5866 5865 5864 5863 5862 5861 5860 5859 5858 5858 5857 5856 5854 5853 5854 5855 5856 5857 5857 5858 5859 5860 5861 5861 5861 5861 5860 5859 5858 5858 5859 5861 5862
5872 5872 5871 5870 5869 5869 5868 5867 5866 5865 5864 5863 5862 5861 5861 5860 5859 5857 5856 5855 5854 5853 5851 5849 5850 5852 5853 5855 5856 5856 5857 5858 5859 5859 5859 5859 5859 5858 5858 5858 5859 5860 5861
5871 5870 5869 5868 5868 5867 5866 5865 5864 5864 5863 5862 5861 5860 5859 5858 5857 5856 5854 5853 5852 5850 5848 5845 5846 5849 5851 5853 5854 5854 5855 5856 5857 5857 5857 5857 5857 5857 5857 5858 5858 5859 5859
5870 5869 5868 5867 5866 5865 5865 5864 5863 5862 5861 5860 5859 5858 5857 5856 5855 5854 5852 5851 5850 5849 5847 5845 5846 5847 5849 5851 5851 5852 5853 5854 5855 5855 5855 5856 5856 5856 5856 5856 5857 5857 5858
5867 5867 5866 5865 5864 5863 5863 5862 5861 5860 5859 5858 5857 5855 5854 5853 5852 5852 5850 5849 5848 5848 5847 5846 5846 5846 5848 5849 5849 5850 5851 5852 5852 5853 5853 5853 5854 5854 5854 5855 5855 5856 5856
5865 5864 5864 5863 5862 5861 5860 5859 5858 5858 5857 5855 5854 5853 5852 5851 5850 5849 5848 5848 5847 5846 5845 5845 5845 5846 5846 5847 5847 5848 5849 5849 5850 5851 5851 5851 5852 5852 5853 5853 5853 5854 5854
5863 5862 5862 5861 5860 5859 5858 5857 5856 5855 5854 5853 5852 5850 5849 5849 5848 5847 5846 5846 5845 5844 5844 5844 5844 5844 5845 5845 5845 5846 5846 5847 5847 5848 5849 5849 5850 5850 5850 5851 5851 5852 5852
5860 5860 5859 5858 5857 5856 5855 5854 5853 5852 5851 5850 5849 5848 5847 5846 5846 5845 5844 5844 5843 5842 5842 5842 5842 5842 5842 5843 5843 5843 5844 5844 5845 5846 5846 5847 5847 5848 5848 5849 5849 5849 5850
5858 5857 5856 5856 5855 5854 5853 5852 5850 5849 5848 5847 5846 5845 5844 5844 5843 5842 5842 5841 5840 5840 5840 5840 5840 5840 5840 5841 5841 5841 5841 5842 5843 5843 5844 5844 5845 5846 5846 5847 5847 5847 5847
5855 5854 5854 5853 5852 5851 5850 5849 5848 5846 5845 5844 5843 5843 5842 5841 5840 5840 5839 5839 5838 5838 5838 5838 5838 5838 5838 5838 5839 5839 5839 5840 5840 5841 5842 5842 5843 5843 5844 5844 5844 5845 5845
5852 5851 5851 5850 5849 5848 5847 5846 5845 5844 5843 5842 5841 5840 5839 5838 5838 5837 5836 5836 5835 5835 5835 5835 5835 5835 5835 5836 5836 5836 5837 5837 5838 5839 5839 5840 5840 5841 5841 5842 5842 5842 5842
5849 5848 5848 5847 5846 5845 5844 5843 5842 5841 5840 5839 5838 5837 5837 5836 5835 5834 5834 5833 5833 5833 5832 5833 5833 5832 5833 5833 5833 5834 5834 5835 5836 5836 5836 5837 5837 5838 5838 5839 5839 5839 5839
5845 5844 5844 5843 5842 5841 5841 5840 5839 5838 5837 5836 5835 5834 5833 5833 5832 5832 5831 5831 5830 5830 5830 5830 5830 5830 5830 5830 5831 5831 5831 5832 5832 5833 5834 5834 5835 5835 5835 5836 5836 5836 5836
5841 5841 5840 5839 5839 5838 5837 5836 5835 5835 5834 5833 5832 5831 5830 5829 5829 5828 5828 5827 5827 5827 5827 5827 5827 5827 5828 5828 5828 5829 5829 5829 5829 5830 5830 5831 5832 5832 5832 5832 5833 5833 5833
5837 5837 5836 5836 5835 5834 5833 5832 5832 5831 5830 5830 5828 5827 5827 5826 5825 5825 5825 5824 5824 5824 5824 5824 5824 5824 5824 5825 5825 5825 5826 5826 5827 5827 5827 5828 5828 5829 5829 5829 5829 5829 5829
5833 5833 5832 5832 5831 5830 5829 5828 5828 5827 5826 5826 5825 5824 5823 5822 5822 5821 5821 5821 5821 5820 5820 5820 5820 5820 5821 5821 5821 5822 5822 5823 5823 5824 5824 5824 5824 5825 5825 5825 5825 5825 5825
5829 5828 5828 5827 5827 5826 5825 5824 5823 5823 5822 5821 5820 5819 5819 5818 5818 5817 5817 5816 5816 5816 5816 5816 5816 5817 5817 5817 5818 5818 5818 5819 5819 5819 5820 5820 5820 5820 5820 5820 5820 5820 5820